Portada
METAR-TAF:

METAR-TAF

Aeroports :

Kaiser-Lake Ozark, Missouri, Estats Units d'Amèrica

latitud: 38-06N, longitud: 092-33W, altitud: 265 m

Observació

L'informe es va fer fa 15 minuts, a les 00:03 UTC
Vent 7 kt del Nord/Nord-Oest
Temperatura 3°C
Humitat 93%
Pressió 1020 hPa
Visibilitat: 16.1 km
Cel ennuvolat a una alçada de 1000 ft
Cel cobert a una alçada de 2000 ft

METAR: KAIZ 040003Z AUTO 33007KT 10SM BKN010 OVC020 03/02 A3012 RMK AO2 CIG 008V014

Hora: 19:18 (00:18 UTC)


TAF: manca

Observacions i pronòstics meteorològics de més de 4000 aeroports (METAR i TAF).

Les estacions disponibles són els punts grocs i vermells al mapa.

Posi el ratolí al punt desitjat per veure el nom de l'estació.

Feu clic per veure les observacions i els pronòstics meteorològics.

Per canviar el mapa: feu clic els botons verds amb una creu de color negre per apropar; al botó verd amb un guió per allunyar la imatge; o en les fletxes verdes per a mapes adjacents.


METAR-TAF: